Location: West Cummington
(42.4920°N, 72.9680°W)
Time: 17:44:30
(UTC-04:00)

Cosmos 2221 - Visible Passes

Search period start: 18 September 2014 00:00
Search period end: 28 September 2014 00:00
Orbit: 597 x 623 km, 82.5° (Epoch: 18 September)

Date Brightness Start Highest point End Pass type
(mag) Time Alt. Az. Time Alt. Az. Time Alt. Az.
18 Sep 2.5 20:08:04 10° S 20:12:17 60° E 20:16:31 10° NNE visible
18 Sep 5.7 21:48:40 10° W 21:50:24 12° WNW 21:52:08 10° NW visible
19 Sep 2.6 20:22:35 10° SSW 20:26:52 76° W 20:31:10 10° N visible
20 Sep 3.8 20:37:27 10° SSW 20:41:31 42° WNW 20:45:36 10° N visible
21 Sep 3.4 19:15:00 10° SSE 19:18:37 27° E 19:22:14 10° NNE visible
21 Sep 4.8 20:52:43 10° SW 20:56:15 25° WNW 20:59:47 10° NNW visible
22 Sep 2.7 19:28:58 10° SSE 19:33:05 48° E 19:37:13 10° NNE visible
22 Sep 5.6 21:08:36 10° WSW 21:11:03 15° WNW 21:13:31 10° NW visible
23 Sep 5.9 05:37:09 10° NE 05:39:18 13° ENE 05:41:26 10° E visible
23 Sep 2.4 19:43:20 10° S 19:47:37 87° E 19:51:56 10° N visible
24 Sep 5.4 05:50:43 10° NNE 05:54:07 22° ENE 05:57:32 10° SE visible
24 Sep 3.4 19:58:04 10° SSW 20:02:14 52° W 20:06:26 10° N visible
25 Sep 4.3 06:04:50 10° N 06:08:52 37° ENE 06:12:54 10° SE visible
25 Sep 4.6 20:13:09 10° SW 20:16:56 30° WNW 20:20:43 10° NNW visible
26 Sep 5.5 20:28:45 10° WSW 20:31:42 18° WNW 20:34:40 10° NNW visible
27 Sep 6.1 04:58:44 10° NE 04:59:55 11° ENE 05:01:06 10° E visible
27 Sep 2.5 19:04:07 10° S 19:08:21 69° E 19:12:37 10° NNE visible
27 Sep 6.1 20:45:36 10° W 20:46:33 11° WNW 20:47:30 10° NW visible
